EW3230 Weather Reports


Display with metric or nautical units.
time (UTC)temp
F
wind
direction
speed
MPH
gust
MPH
rain 1hr
in
rain 24hr
in
rain mn
in
humidity
%
barometer
mb
20260901211319 63 206 0.0 0.0 0.00 0.10 0.10 64 1018.5
20260901205817 63 206 0.0 0.0 0.00 0.10 0.10 64 1018.3
20260901204813 64 205 0.0 0.0 0.00 0.10 0.10 64 1018.2
20260901203812 64 206 0.0 0.0 0.00 0.10 0.10 64 1018.2
20260901202812 64 183 0.0 0.0 0.01 0.10 0.10 64 1018.3
20260901202311 64 183 0.0 0.0 0.01 0.10 0.10 64 1018.2
20260901200810 63 183 0.0 0.0 0.01 0.10 0.10 65 1018.1
20260901200311 64 183 0.0 0.0 0.01 0.10 0.10 65 1018.0
20260901194809 63 183 0.0 0.0 0.01 0.10 0.10 65 1018.2
20260901193809 63 183 0.0 0.0 0.02 0.10 0.10 66 1018.1
20260901192810 64 183 0.0 1.0 0.03 0.09 0.09 66 1018.0
20260901192306 64 242 0.0 0.0 0.08 0.09 0.09 65 1018.0
20260901190805 64 242 0.0 0.0 0.08 0.09 0.09 65 1017.9
20260901185804 64 198 0.0 0.0 0.08 0.09 0.09 66 1017.8
20260901184803 64 198 0.0 1.0 0.08 0.09 0.09 67 1017.7
20260901184303 64 198 0.0 1.0 0.07 0.08 0.08 69 1017.8
20260901182806 64 198 0.0 1.0 0.05 0.06 0.06 72 1017.9
20260901181804 65 141 0.0 1.0 0.00 0.01 0.01 74 1017.9
20260901180803 66 214 0.0 0.0 0.00 0.01 0.01 74 1018.0
20260901175805 67 215 0.0 1.0 0.00 0.01 0.01 74 1018.0
20260901174802 67 215 0.0 0.0 0.00 0.01 0.01 75 1018.1
20260901173802 67 173 0.0 1.0 0.00 0.01 0.01 75 1018.0
20260901172808 67 198 0.0 1.0 0.00 0.01 0.01 75 1018.0
20260901172802 67 173 0.0 1.0 0.00 0.01 0.01 75 1018.0
20260901170758 67 207 0.0 1.0 0.00 0.01 0.01 74 1017.9
20260901165757 69 205 0.0 1.0 0.00 0.01 0.01 73 1017.7
20260901164757 70 212 0.0 1.0 0.00 0.01 0.01 72 1017.7
20260901163757 71 229 0.0 1.0 0.00 0.01 0.01 73 1017.8
20260901162759 71 123 0.0 1.0 0.00 0.01 0.01 74 1017.6
20260901161756 71 145 0.0 1.0 0.00 0.01 0.01 74 1017.5
20260901161256 71 142 0.0 1.0 0.00 0.01 0.01 74 1017.6
20260901160300 71 193 0.0 1.0 0.00 0.01 0.01 74 1017.9
20260901155259 71 165 0.0 1.0 0.00 0.01 0.01 73 1017.8
20260901153753 72 166 0.0 1.0 0.00 0.01 0.01 74 1017.8
20260901153253 72 135 0.0 1.0 0.00 0.01 0.01 74 1017.8
20260901151805 72 135 0.0 1.0 0.00 0.01 0.01 72 1017.8
20260901150752 71 155 0.0 1.0 0.01 0.01 0.01 72 1017.8
20260901145752 71 134 0.0 1.0 0.01 0.01 0.01 71 1018.0
20260901144755 71 67 0.0 0.0 0.01 0.01 0.01 69 1018.3
20260901144749 71 97 0.0 0.0 0.01 0.01 0.01 71 1018.3
20260901142749 70 67 0.0 1.0 0.01 0.01 0.01 67 1018.2
20260901141750 70 43 0.0 2.0 0.01 0.01 0.01 67 1018.3
20260901140747 70 36 0.0 0.0 0.00 0.00 0.00 65 1018.3
20260901135745 70 36 0.0 0.0 0.00 0.00 0.00 66 1018.0
20260901134747 69 35 0.0 0.0 0.00 0.00 0.00 67 1018.1
20260901133746 69 36 0.0 1.0 0.00 0.00 0.00 68 1018.1
20260901132745 69 30 0.0 1.0 0.00 0.00 0.00 68 1018.1
20260901131743 69 13 0.0 0.0 0.00 0.00 0.00 68 1018.1
20260901130744 69 13 0.0 1.0 0.00 0.00 0.00 69 1018.0
20260901125744 69 49 0.0 1.0 0.00 0.00 0.00 68 1018.1
20260901124744 69 41 0.0 1.0 0.00 0.00 0.00 69 1018.1
20260901124245 69 167 0.0 0.0 0.00 0.00 0.00 68 1018.1
20260901122742 69 167 0.0 0.0 0.00 0.00 0.00 67 1018.0
20260901121741 68 166 0.0 0.0 0.00 0.00 0.00 67 1017.9
20260901120743 68 166 0.0 0.0 0.00 0.00 0.00 67 1017.8
20260901115738 68 166 0.0 0.0 0.00 0.00 0.00 66 1018.0
20260901114737 67 166 0.0 0.0 0.00 0.00 0.00 66 1018.1
20260901113737 67 166 0.0 0.0 0.00 0.00 0.00 66 1018.0
20260901112738 67 167 0.0 0.0 0.00 0.00 0.00 66 1018.0
20260901111739 66 166 0.0 0.0 0.00 0.00 0.00 65 1017.9
20260901110735 66 166 0.0 0.0 0.00 0.00 0.00 65 1017.9
20260901110237 66 167 0.0 0.0 0.00 0.00 0.00 65 1017.7
20260901104736 66 166 0.0 1.0 0.00 0.00 0.00 65 1017.6
20260901104238 66 172 0.0 0.0 0.00 0.00 0.00 65 1017.6
20260901102733 65 172 0.0 0.0 0.00 0.00 0.00 65 1017.5
20260901102231 65 172 0.0 0.0 0.00 0.00 0.00 65 1017.4
20260901095725 65 172 0.0 0.0 0.00 0.00 0.00 66 1017.3
20260901094727 65 172 0.0 0.0 0.00 0.00 0.00 66 1017.3
20260901093740 65 172 0.0 0.0 0.00 0.00 0.00 67 1017.3
20260901092727 66 172 0.0 0.0 0.00 0.00 0.00 68 1017.4
20260901091725 66 172 0.0 0.0 0.00 0.00 0.00 68 1017.3
20260901090725 66 172 0.0 0.0 0.00 0.00 0.00 68 1017.4
20260901085724 66 172 0.0 0.0 0.00 0.00 0.00 68 1017.3
20260901084719 66 172 0.0 0.0 0.00 0.00 0.00 68 1017.7
20260901084222 66 172 0.0 0.0 0.00 0.00 0.00 69 1017.9
20260901082719 66 172 0.0 0.0 0.00 0.00 0.00 69 1018.1
20260901080719 66 172 0.0 0.0 0.00 0.00 0.00 69 1018.0
20260901075721 66 172 0.0 0.0 0.00 0.00 0.00 70 1017.9
20260901074721 66 172 0.0 0.0 0.00 0.00 0.00 70 1018.0
20260901073719 66 172 0.0 0.0 0.00 0.00 0.00 70 1018.1
20260901072719 65 172 0.0 0.0 0.00 0.00 0.00 70 1018.2
20260901071717 65 172 0.0 0.0 0.00 0.00 0.00 70 1018.1
20260901070716 65 172 0.0 0.0 0.00 0.00 0.00 70 1018.2
20260901065712 65 172 0.0 0.0 0.00 0.00 0.00 70 1018.2
20260901064728 65 172 0.0 0.0 0.00 0.00 0.00 70 1018.4
20260901063713 65 172 0.0 0.0 0.00 0.00 0.00 69 1018.6
20260901062714 65 172 0.0 0.0 0.00 0.00 0.00 69 1018.5
20260901061713 65 172 0.0 0.0 0.00 0.00 0.00 69 1018.4
20260901061215 65 172 0.0 0.0 0.00 0.00 0.00 69 1018.4
20260901055713 65 172 0.0 0.0 0.00 0.00 0.00 70 1018.5
20260901054707 65 172 0.0 0.0 0.00 0.00 0.00 70 1018.6
20260901053707 65 172 0.0 1.0 0.00 0.00 0.00 70 1018.7
20260901052708 65 172 0.0 0.0 0.00 0.00 0.00 70 1018.6
20260901052208 65 172 0.0 0.0 0.00 0.00 0.00 70 1018.5
20260901050708 65 172 0.0 0.0 0.00 0.01 0.00 70 1018.6
20260901045708 65 172 0.0 0.0 0.00 0.03 0.00 69 1018.6
20260901044706 65 172 0.0 0.0 0.00 0.03 0.00 69 1018.6
20260901043705 65 172 0.0 0.0 0.00 0.03 0.00 70 1018.9
20260901042704 65 172 0.0 0.0 0.00 0.03 0.00 71 1019.0
20260901042205 66 172 0.0 0.0 0.00 0.03 0.00 72 1019.0
20260901040703 66 172 0.0 0.0 0.00 0.03 0.00 72 1019.0
20260901035702 66 172 0.0 0.0 0.00 0.03 0.03 72 1019.0
20260901034701 67 172 0.0 0.0 0.00 0.04 0.03 71 1019.0
20260901033701 67 172 0.0 0.0 0.00 0.05 0.03 71 1019.0
20260901032704 67 172 0.0 0.0 0.00 0.10 0.03 72 1019.1
20260901031702 67 172 0.0 0.0 0.00 0.10 0.03 72 1019.1
20260901030702 67 172 0.0 0.0 0.00 0.11 0.03 72 1019.0
20260901025704 67 172 0.0 0.0 0.00 0.12 0.03 72 1019.1
20260901025205 67 172 0.0 1.0 0.00 0.13 0.03 72 1019.1
20260901023702 67 167 0.0 0.0 0.00 0.13 0.03 72 1019.2
20260901022703 67 167 0.0 0.0 0.00 0.13 0.03 73 1019.3
20260901021702 67 167 0.0 0.0 0.00 0.13 0.03 74 1019.4
20260901020704 68 167 0.0 0.0 0.00 0.14 0.03 73 1019.3
20260901015704 68 167 0.0 0.0 0.00 0.14 0.03 74 1019.4
20260901014701 68 167 0.0 0.0 0.00 0.14 0.03 74 1019.2
20260901013703 68 167 0.0 0.0 0.00 0.14 0.03 73 1019.2
20260901013157 68 167 0.0 0.0 0.00 0.14 0.03 73 1019.3
20260901012157 68 167 0.0 1.0 0.00 0.14 0.03 73 1019.3
20260901011156 69 155 0.0 1.0 0.00 0.14 0.03 73 1019.2
20260901005656 69 155 0.0 0.0 0.00 0.14 0.03 73 1019.3
20260901004657 69 155 0.0 0.0 0.00 0.14 0.03 74 1019.2
20260901003656 69 155 0.0 1.0 0.00 0.14 0.03 74 1019.2
20260901002656 69 155 0.0 1.0 0.00 0.14 0.03 75 1019.2
20260901001655 69 155 0.0 0.0 0.00 0.14 0.03 75 1019.4
20260901001157 69 155 0.0 0.0 0.00 0.14 0.03 75 1019.4
20260831235651 69 155 0.0 0.0 0.00 0.14 0.03 75 1019.3
20260831234649 69 155 0.0 0.0 0.00 0.14 0.03 75 1019.4
20260831233702 69 155 0.0 0.0 0.00 0.14 0.03 75 1019.2
20260831233651 69 155 0.0 1.0 0.00 0.14 0.03 75 1019.3
20260831231650 70 155 0.0 1.0 0.00 0.14 0.03 75 1019.2
20260831230651 70 155 0.0 1.0 0.00 0.14 0.03 75 1019.3
20260831225649 70 155 0.0 1.0 0.00 0.14 0.03 75 1019.3
20260831224651 71 160 0.0 1.0 0.00 0.14 0.03 75 1019.3
20260831223650 71 150 0.0 1.0 0.00 0.14 0.03 75 1019.4
20260831222646 71 160 0.0 1.0 0.00 0.14 0.03 75 1019.4
20260831221644 72 163 0.0 1.0 0.00 0.14 0.03 74 1019.4
20260831220643 72 163 0.0 1.0 0.00 0.14 0.03 74 1019.5
20260831215644 73 166 0.0 1.0 0.00 0.14 0.03 73 1019.4
20260831214645 73 181 0.0 1.0 0.00 0.14 0.03 69 1019.4
20260831213644 74 195 0.0 1.0 0.00 0.14 0.03 67 1019.5
20260831212646 74 195 0.0 1.0 0.00 0.14 0.03 67 1019.4
20260831211643 74 162 0.0 1.0 0.00 0.14 0.03 66 1019.4